This demonstration page uses our WeatherBlox Daily Observations layout. Learn more.

Left ArrowRight Arrow

Hourly Observations for December 27, 2021

Temp ( °F °C ) Dew Point ( °F °C ) Humidity (%) Winds ( mph kmh ) Pressure ( in mb ) Visibility ( mi km ) Precip ( " mm )
12:56 am 00:56 Clear 38 3.3 18 -7.8 44 44 W 13 20 29.70 1006 10 16 0.00 0.00
1:56 am 01:56 Clear 38 3.3 11 -11.7 33 33 W 13 20 29.72 1007 10 16 0.00 0.00
2:56 am 02:56 Clear 34 1.1 10 -12.2 37 37 W 7 11 29.74 1007 10 16 0.00 0.00
3:56 am 03:56 Clear 31 -0.6 11 -11.7 43 43 NW 9 15 29.77 1008 10 16 0.00 0.00
4:56 am 04:56 Clear 31 -0.6 10 -12.2 42 42 NW 9 15 29.79 1009 10 16 0.00 0.00
5:56 am 05:56 Clear 32 0 9 -12.8 38 38 NW 8 13 29.84 1011 10 16 0.00 0.00
6:56 am 06:56 Clear 32 0 7 -13.9 35 35 WNW 6 9 29.89 1012 10 16 0.00 0.00
7:56 am 07:56 Clear 29 -1.7 7 -13.9 39 39 WSW 5 7 29.92 1013 10 16 0.00 0.00
8:56 am 08:56 Sunny 25 -3.9 8 -13.3 48 48 NW 5 7 29.93 1014 10 16 0.00 0.00
9:56 am 09:56 Sunny 22 -5.6 11 -11.7 63 63 SSW 3 6 29.96 1015 10 16 0.00 0.00
10:56 am 10:56 Sunny 27 -2.8 12 -11.1 53 53 WSW 6 9 29.97 1015 10 16 0.00 0.00
11:56 am 11:56 Sunny 33 0.6 9 -12.8 36 36 S 5 7 29.93 1014 10 16 0.00 0.00
12:56 pm 12:56 Sunny 35 1.7 12 -11.1 38 38 S 7 11 29.89 1012 10 16 0.00 0.00
1:56 pm 13:56 Sunny 39 3.9 5 -15 24 24 S 12 19 29.85 1011 10 16 0.00 0.00
2:56 pm 14:56 Sunny 40 4.4 5 -15 23 23 S 18 30 29.83 1010 10 16 0.00 0.00
3:56 pm 15:56 Sunny 38 3.3 7 -13.9 27 27 S 12 19 29.82 1010 10 16 0.00 0.00
4:56 pm 16:56 Sunny 36 2.2 6 -14.4 28 28 S 12 19 29.79 1009 10 16 0.00 0.00
5:56 pm 17:56 Clear 32 0 8 -13.3 36 36 SSE 8 13 29.78 1008 10 16 0.00 0.00
6:56 pm 18:56 Clear 32 0 11 -11.7 41 41 SSE 12 19 29.76 1008 10 16 0.00 0.00
7:56 pm 19:56 Clear 33 0.6 10 -12.2 38 38 SSE 12 19 29.74 1007 10 16 0.00 0.00
8:56 pm 20:56 Clear 32 0 13 -10.6 45 45 SSE 13 20 29.70 1006 10 16 0.00 0.00
9:56 pm 21:56 Clear 31 -0.6 13 -10.6 47 47 SSE 15 24 29.66 1004 10 16 0.00 0.00
10:56 pm 22:56 Clear 31 -0.6 14 -10 49 49 SE 12 19 29.61 1003 10 16 0.00 0.00
11:56 pm 23:56 Clear 30 -1.1 15 -9.4 54 54 SSE 13 20 29.58 1002 10 16 0.00 0.00

Powered by AerisWeather